EUTELSAT 36B

Last updated on Jan. 17, 2021, 6:29 a.m. UTC

1 36101U 09065A   21016.79933293  .00000151  00000-0  00000-0 0  9993
2 36101   0.0653  22.8660 0004690 273.8839 143.3099  1.00273032 40898
UTC
Height (km)
Latitude
Longitude
Inclination
Orbital Period
UTC large
Height (km)
Speed (km/s)
/
Latitude / Longitude
Inclination (degrees)
Orbital Period (minutes)
Azimuth
Elevation
Range (km)
Doppler Factor
iOS Compass Heading
iOS Angle

Next 30 passes for location: Hong Kong

Rise time Rise Azimuth (degrees) Set time Set Azimuth (degrees) Duration Max altitude (degrees)

No matching passes for this satellites